[[{"header":{"parameterUnit":"m.s-1","parameterCategory":1,"la1":30.2991,"la2":30.254,"lo1":-89.0895,"lo2":-89.0444,"dy":0.0017,"dx":0.0017,"nx":28,"ny":28,"refTime":"2023-07-20T09:00:00:Z","depth":0,"parameterNumber":2,"parameterNumberName":"U-component_of_WINDS"},"data":[0,0,0,0,0,0,0,0,0,0,0,0,0,0,0,0,0,0,0,0,0,0,0,0,0,0,0,0,0,0,0,0,0,0,0,0,0,0,0,0,0,0,0,0,0,0,0,0,0,0,0,0,0,0,0,0,0,0,1.0079,1.008,0,1.0179,1.018,1.0181,1.0211,1.021,1.021,1.0209,1.031,1.0313,1.0317,0,0,0,0,0,0,0,0,0,0,0,0,0,0.9912,0.9915,1.0079,1.008,1.0082,1.0179,1.018,1.0181,1.0211,1.021,1.0209,1.0209,1.0309,1.0313,1.0317,0,0,0,0,0,0,0,0,0,0,0,0,0,0.9995,0.9916,1.0079,1.0108,1.0112,1.0178,1.018,1.0182,1.0211,1.021,1.0209,1.0209,1.0308,1.0313,1.0317,1.0362,0,0,1.0332,1.0334,0,0,0,0,0,0,0,0,0.9991,1.0001,1.0102,1.0106,1.011,1.0182,1.0158,1.0242,1.0211,1.0173,1.0209,1.0208,1.0268,1.0276,1.0296,1.0367,1.0371,1.0332,1.0335,1.0337,1.0339,0,0,0,0,0,0,0,0.9985,0.9997,1.0119,1.0104,1.0109,1.0115,1.0126,1.0174,1.0224,1.0176,1.0179,1.019,1.027,1.0292,1.0299,1.0373,1.0332,1.0336,1.0339,1.0341,1.0483,1.0484,0,0,0,0,0,0,0.9974,0.9992,1.0115,1.0121,1.0047,1.0119,1.0131,1.0159,1.0223,1.0232,1.0191,1.0191,1.0284,1.0293,1.0303,1.0358,1.0337,1.0342,1.0344,1.0482,1.0483,1.0484,0,0,0,0,0,0,0.9971,0.9985,1.0111,1.0058,1.0074,1.0123,1.0154,1.0162,1.0184,1.0234,1.0243,1.0204,1.0284,1.0296,1.0347,1.0362,1.0344,1.0348,1.0481,1.0483,1.0484,1.047,0,0,0,0,0,0,0.9966,0.9983,1.0002,1.0058,1.0077,1.0154,1.0155,1.0164,1.0192,1.0193,1.0249,1.0257,1.0284,1.034,1.0352,1.0368,1.0352,1.048,1.0482,1.0483,1.0469,1.0471,1.0472,0,0,0,0,0,0.996,0.9994,1.0002,1.0017,1.0101,1.0155,1.0166,1.0196,1.0193,1.0211,1.0243,1.0256,1.0359,1.0345,1.0358,1.0377,1.0479,1.0481,1.0483,1.0469,1.047,1.0472,0,0,0,0,0,0,0.9938,1.0002,1.0012,1.0066,1.0105,1.016,1.0184,1.0198,1.0238,1.0238,1.0274,1.0286,1.0334,1.0361,1.0344,1.0423,1.0419,1.0424,1.0403,1.0405,1.0407,1.0399,1.0356,0,0,0,0,0,0.994,0.9979,1.0033,1.0075,1.0094,1.0135,1.016,1.018,1.0222,1.0239,1.0275,1.0314,1.0356,1.0382,1.0423,1.0473,1.0485,1.0493,1.0494,1.0495,1.0498,1.0525,1.0529,1.0491,1.0491,1.0491,0,0,0.9943,0.9983,1.0006,1.0071,1.0104,1.0143,1.0149,1.0191,1.022,1.0245,1.0295,1.0323,1.0369,1.0419,1.0444,1.0443,1.0511,1.0497,1.0498,1.0501,1.0528,1.0531,1.0535,1.0493,1.0492,1.0492,0,0,0.997,1.0004,1.0043,1.0075,1.0124,1.0151,1.016,1.0214,1.0233,1.0283,1.0303,1.0337,1.0408,1.044,1.0466,1.0502,1.0515,1.0515,1.0521,1.0547,1.055,1.0553,1.0565,1.0569,1.0518,1.0518,1.0518,0,0.9968,1.0029,1.006,1.0101,1.0128,1.0153,1.0191,1.0221,1.028,1.0298,1.0297,1.0385,1.0419,1.0476,1.0485,1.0505,1.0516,1.0508,1.0547,1.055,1.0554,1.0565,1.057,1.0518,1.0518,1.0518,1.0518,0,1.0023,1.0065,1.0089,1.0146,1.0177,1.0216,1.0253,1.0279,1.0296,1.0323,1.0373,1.0414,1.0463,1.0478,1.0495,1.0537,1.0535,1.054,1.0538,1.0556,1.0568,1.0573,1.0517,1.0517,1.0517,1.0517,0,0,1.004,1.0113,1.0121,1.0147,1.0202,1.0234,1.0274,1.0321,1.0343,1.0383,1.0416,1.0475,1.0479,1.0508,1.0529,1.0552,1.0576,1.0554,1.0555,1.0556,1.0624,1.0619,1.0624,1.0585,1.0586,1.0587,1.062,0,1.0072,1.0144,1.0173,1.0231,1.0269,1.0292,1.0326,1.0363,1.0389,1.0424,1.0453,1.0493,1.0496,1.0514,1.0537,1.0568,1.0591,1.0567,1.0615,1.0617,1.0602,1.0631,1.0626,1.0655,1.0625,1.0625,1.0626,0,1.012,1.016,1.0222,1.0271,1.0288,1.0318,1.0364,1.0397,1.0439,1.0456,1.0488,1.0507,1.0548,1.0543,1.0599,1.0582,1.0604,1.0622,1.0624,1.0629,1.0622,1.0636,1.0665,1.0669,1.0634,1.0633,1.0633,0,1.0124,1.0194,1.0239,1.0261,1.032,1.034,1.0366,1.0407,1.0433,1.0472,1.0489,1.0533,1.0557,1.0589,1.0619,1.0613,1.0673,1.067,1.0687,1.0686,1.0698,1.0697,1.0731,1.0713,1.0713,1.0713,1.0713,0,1.0158,1.0194,1.0242,1.027,1.0311,1.0343,1.0383,1.041,1.0446,1.0479,1.0501,1.0531,1.0569,1.0604,1.0628,1.067,1.0681,1.0695,1.0701,1.0693,1.0691,1.0707,1.0706,1.0715,1.0714,1.0714,1.0714,0,1.0169,1.0203,1.0254,1.0305,1.0319,1.0347,1.039,1.0418,1.0444,1.0485,1.0497,1.0538,1.058,1.0613,1.0668,1.0684,1.0728,1.0735,1.0714,1.0717,1.0731,1.0729,1.0777,1.0784,1.0762,1.0762,1.0762,0,1.0188,1.0216,1.027,1.0294,1.0319,1.0357,1.0384,1.0416,1.0443,1.0492,1.0513,1.0557,1.0593,1.0659,1.0693,1.0735,1.0743,1.0756,1.0749,1.0739,1.0742,1.0739,1.0742,1.0757,1.0757,1.0757,1.0757,0,1.0217,1.0232,1.0269,1.0313,1.0344,1.0379,1.0415,1.0433,1.0472,1.0501,1.0544,1.0572,1.0627,1.067,1.0715,1.074,1.0755,1.0759,1.0765,1.0757,1.0743,1.075,1.0715,1.0758,1.0758,1.0758,1.0758,1.0758,1.0232,1.0258,1.0299,1.034,1.0371,1.0403,1.0431,1.0461,1.0497,1.0545,1.0562,1.0606,1.0646,1.0707,1.0733,1.0767,1.0768,1.0777,1.0779,1.0781,1.0779,1.0738,1.0776,1.0776,1.0776,1.0776,1.0776,0,1.0261,1.0289,1.0326,1.0375,1.0407,1.0418,1.0458,1.0484,1.0522,1.0558,1.0593,1.0642,1.0683,1.072,1.0763,1.0783,1.079,1.0793,1.0791,1.0797,1.0777,1.0767,1.0786,1.0786,1.0786,1.0786,1.0786,1.0786,1.028,1.0324,1.0343,1.0402,1.0429,1.0472,1.0494,1.0524,1.0553,1.0606,1.064,1.0664,1.07,1.0745,1.0783,1.0793,1.0807,1.0807,1.0819,1.08,1.0798,1.0797,1.0788,1.081,1.081,1.0836,1.0836,1.0836]},{"header":{"parameterUnit":"m.s-1","parameterCategory":1,"la1":30.2991,"la2":30.254,"lo1":-89.0895,"lo2":-89.0444,"dy":0.0017,"dx":0.0017,"nx":28,"ny":28,"refTime":"2023-07-20T09:00:00:Z","depth":0,"parameterNumber":3,"parameterNumberName":"V-component_of_WINDS"},"data":[0,0,0,0,0,0,0,0,0,0,0,0,0,0,0,0,0,0,0,0,0,0,0,0,0,0,0,0,0,0,0,0,0,0,0,0,0,0,0,0,0,0,0,0,0,0,0,0,0,0,0,0,0,0,0,0,0,0,4.8782,4.8781,0,4.8716,4.8715,4.8714,4.8602,4.86,4.8598,4.8596,4.8529,4.8529,4.853,0,0,0,0,0,0,0,0,0,0,0,0,0,4.8813,4.8813,4.8782,4.8781,4.878,4.8716,4.8715,4.8714,4.8603,4.86,4.8598,4.8595,4.8529,4.8529,4.853,0,0,0,0,0,0,0,0,0,0,0,0,0,4.8778,4.8813,4.8782,4.8717,4.8711,4.8716,4.8715,4.8714,4.8603,4.86,4.8597,4.8594,4.8529,4.8529,4.853,4.8594,0,0,4.853,4.853,0,0,0,0,0,0,0,0,4.878,4.8777,4.8727,4.8722,4.8714,4.8664,4.8701,4.8673,4.8604,4.8644,4.8596,4.8592,4.8577,4.8573,4.8567,4.859,4.8588,4.853,4.853,4.8531,4.8531,0,0,0,0,0,0,0,4.8783,4.878,4.8756,4.8727,4.8719,4.8691,4.8683,4.8695,4.8629,4.864,4.8632,4.8626,4.8572,4.8567,4.8565,4.8587,4.853,4.8531,4.8531,4.8531,4.8656,4.8659,0,0,0,0,0,0,4.8795,4.8782,4.8758,4.8754,4.874,4.8693,4.8684,4.8683,4.8628,4.8617,4.8628,4.8621,4.8568,4.8565,4.8562,4.8631,4.8531,4.8531,4.8531,4.8653,4.8657,4.866,0,0,0,0,0,0,4.8796,4.8794,4.876,4.8766,4.8759,4.8696,4.8696,4.8684,4.8678,4.8619,4.8607,4.8635,4.8566,4.8562,4.8586,4.8627,4.8531,4.8531,4.8649,4.8654,4.8659,4.8771,0,0,0,0,0,0,4.8797,4.8795,4.8818,4.8767,4.876,4.8786,4.8699,4.8685,4.8679,4.8668,4.8622,4.8612,4.8563,4.8586,4.8586,4.8626,4.8531,4.8645,4.8651,4.8657,4.8764,4.8779,4.8793,0,0,0,0,0,4.8799,4.8854,4.882,4.8818,4.8788,4.8788,4.8784,4.8727,4.8683,4.8706,4.8667,4.8613,4.8623,4.859,4.8589,4.8629,4.8642,4.865,4.8657,4.8757,4.8776,4.8792,0,0,0,0,0,0,4.8912,4.8846,4.8808,4.8848,4.8825,4.877,4.8797,4.8749,4.8738,4.8729,4.8658,4.8649,4.8682,4.8658,4.8622,4.8687,4.8624,4.8632,4.8701,4.8719,4.8733,4.8737,4.8532,0,0,0,0,0,4.8942,4.8948,4.8889,4.893,4.892,4.8861,4.8859,4.8817,4.879,4.878,4.8743,4.872,4.8717,4.8717,4.8711,4.876,4.8747,4.8787,4.8802,4.8814,4.8821,4.8843,4.8859,4.8684,4.8684,4.8684,0,0,4.9003,4.8967,4.8976,4.8952,4.8929,4.8936,4.8853,4.8865,4.887,4.8782,4.8801,4.8774,4.8743,4.8779,4.8793,4.876,4.8867,4.8824,4.8834,4.8833,4.8852,4.8868,4.8883,4.8689,4.8688,4.8687,0,0,4.9118,4.9092,4.9122,4.9101,4.9066,4.9026,4.9034,4.8986,4.8964,4.8983,4.8916,4.8921,4.8919,4.8898,4.8888,4.8994,4.8943,4.8994,4.907,4.9092,4.9106,4.9118,4.9154,4.9168,4.9002,4.9002,4.9002,0,4.9198,4.9206,4.9144,4.9159,4.915,4.907,4.9099,4.9082,4.9048,4.9044,4.9007,4.9001,4.8975,4.9004,4.903,4.9025,4.903,4.8998,4.9109,4.912,4.913,4.9164,4.9178,4.9008,4.9007,4.9007,4.9006,0,4.9305,4.9312,4.9341,4.9309,4.9303,4.9326,4.9267,4.9269,4.9227,4.9191,4.921,4.9175,4.916,4.9165,4.9125,4.9188,4.9168,4.9122,4.9057,4.9154,4.9184,4.9197,4.9017,4.9015,4.9013,4.9011,0,0,4.9488,4.9422,4.9433,4.9417,4.9373,4.9377,4.9396,4.9381,4.9383,4.9363,4.9375,4.9375,4.9331,4.9319,4.9276,4.9296,4.9379,4.9246,4.9244,4.927,4.9444,4.9478,4.9494,4.9346,4.9348,4.935,4.9446,0,4.9592,4.962,4.9564,4.9605,4.9609,4.9533,4.9549,4.9524,4.9491,4.949,4.9453,4.9453,4.9396,4.9388,4.9404,4.9366,4.9413,4.9358,4.9356,4.9356,4.9364,4.951,4.9546,4.9638,4.9457,4.9459,4.9461,0,4.9717,4.9701,4.9743,4.9695,4.9695,4.971,4.9691,4.9691,4.9661,4.9635,4.9622,4.9571,4.9585,4.9524,4.9541,4.9506,4.9501,4.9482,4.9484,4.948,4.9413,4.9508,4.9667,4.968,4.9479,4.9478,4.9476,0,4.9843,4.9834,4.9856,4.9845,4.9791,4.9803,4.9781,4.9748,4.9742,4.9725,4.972,4.9706,4.9698,4.9688,4.9634,4.9595,4.9657,4.9593,4.9635,4.9637,4.965,4.965,4.9809,4.9652,4.9651,4.9651,4.9651,0,4.9964,4.9991,4.9912,4.9926,4.9954,4.989,4.992,4.989,4.9861,4.9867,4.9802,4.9809,4.9738,4.9737,4.9696,4.9715,4.9713,4.9691,4.9679,4.9696,4.9698,4.9691,4.9682,4.9655,4.9654,4.9653,4.9653,0,5.0109,5.0058,5.0077,5.0024,5.0011,5.0034,4.9988,4.9998,4.9961,4.997,4.9968,4.9909,4.9905,4.985,4.9835,4.9806,4.9842,4.9819,4.9852,4.9843,4.9888,4.9884,5.0046,5.0063,4.9898,4.9899,4.9901,0,5.0189,5.0208,5.0157,5.0156,5.0137,5.0137,5.013,5.0068,5.0063,5.003,5.0044,5.0034,5.0022,5.0019,4.9974,4.9961,4.9936,4.9994,4.9934,4.9949,4.9934,4.9933,4.9934,5.0006,5.0008,5.001,5.0012,0,5.0334,5.0307,5.03,5.0284,5.0277,5.0262,5.0242,5.0245,5.0176,5.0175,5.0169,5.016,5.0143,5.0134,5.0113,5.0089,5.0039,5.0031,5.004,5.0056,5.0073,5.0062,4.9884,5.0027,5.0026,5.0024,5.0024,5.0023,5.0447,5.046,5.0425,5.0419,5.0398,5.038,5.0387,5.035,5.0344,5.0325,5.0289,5.0289,5.0256,5.0223,5.0203,5.0201,5.0171,5.0185,5.0188,5.0192,5.02,5.0075,5.0198,5.0197,5.0197,5.0196,5.0196,0,5.0587,5.0561,5.0556,5.053,5.0525,5.0478,5.0454,5.0452,5.0452,5.0427,5.0417,5.041,5.04,5.0355,5.0339,5.0346,5.0323,5.0344,5.0342,5.0337,5.0228,5.0221,5.0364,5.0364,5.0364,5.0364,5.0364,5.0364,5.0659,5.0677,5.0647,5.0654,5.0627,5.0626,5.0616,5.0599,5.0578,5.0573,5.0564,5.0535,5.0501,5.0482,5.0471,5.0458,5.0454,5.0483,5.0463,5.0361,5.0345,5.033,5.0322,5.0484,5.0484,5.0571,5.0572,5.0572]}]]